Sioux City, IA

9:28 AM CST on February 23, 2018 (GMT -0600)
Sioux Gateway

Weather History for KSUX - October, 2012

Change the Weather History Date:

Sunday, October 21, 2012

  Actual Average Record
Temperature  
Mean Temperature 59 °F 49 °F  
Max Temperature 76 °F 61 °F 88 °F (1947)
Min Temperature 42 °F 36 °F 14 °F (1913)
Degree Days  
Heating Degree Days 6 16  
Month to date heating degree days 322 266  
Since 1 July heating degree days 465 413  
Cooling Degree Days 0 0  
Month to date cooling degree days 0 8  
Year to date cooling degree days 1249 869  
Growing Degree Days 8 (Base 50)    
Moisture  
Dew Point 44 °F    
Average Humidity 63    
Maximum Humidity 89    
Minimum Humidity 36    
Precipitation  
Precipitation 0.00 in 0.06 in 0.92 in (1906)
Month to date precipitation 1.04 1.62  
Year to date precipitation 20.65 25.12  
Snow  
Snow 0.00 in 0.00 in 0.10 in (1936)
Month to date snowfall 0.0 0.4  
Since 1 July snowfall 0.0 0.4  
Since 1 September snowfall 0.0 0.4  
Snow Depth 0.00 in    
Sea Level Pressure  
Sea Level Pressure 29.75 in    
Wind  
Wind Speed 8 mph (East)    
Max Wind Speed 18 mph    
Max Gust Speed 23 mph    
Visibility 10 miles    
Events      
T = Trace of Precipitation, MM = Missing Value Source: NWS Daily Summary

Daily Weather History Graph

Daily Weather History Graph

Search for Another Location

Airport or City:

Trip Planner

Search our weather history database for the weather conditions in past years. The results will help you decide how hot, cold, wet, or windy it might be!

Date:

Astronomy

Oct. 21, 2012 Rise Set
Actual Time 7:46 AM CDT 6:33 PM CDT
Civil Twilight 7:17 AM CDT 7:01 PM CDT
Nautical Twilight 6:44 AM CDT 7:34 PM CDT
Astronomical Twilight 6:12 AM CDT 8:07 PM CDT
Moon 2:10 PM CDT (10/21) No Moon Set
Length of Visible Light 11h 44m
Length of Day
10h 47m
Waxing Crescent, 45% of the Moon is Illuminated
Oct 21
Waxing Crescent
Oct 21
First Quarter
Oct 29
Full
Nov 6
Last Quarter
Nov 13
New

Hourly Weather History & Observations

Time (CDT) Temp. Windchill Dew Point Humidity Pressure Visibility Wind Dir Wind Speed Gust Speed Precip Events Conditions
12:52 AM 45.0 °F 39.7 °F 39.9 °F 82% 29.74 in 10.0 mi SE 10.4 mph - N/A   Clear
1:52 AM 46.4 °F 41.1 °F 39.2 °F 76% 29.72 in 10.0 mi SE 11.5 mph - N/A   Clear
2:52 AM 45.0 °F 40.1 °F 39.9 °F 82% 29.72 in 10.0 mi SE 9.2 mph - N/A   Clear
3:52 AM 43.0 °F 37.2 °F 39.0 °F 86% 29.70 in 10.0 mi SE 10.4 mph - N/A   Clear
4:52 AM 44.6 °F 39.2 °F 39.2 °F 81% 29.68 in 10.0 mi SE 10.4 mph - N/A   Clear
5:52 AM 42.8 °F 37.5 °F 39.2 °F 87% 29.69 in 10.0 mi SE 9.2 mph - N/A   Clear
6:52 AM 46.0 °F 40.6 °F 41.0 °F 83% 29.71 in 10.0 mi SSE 11.5 mph - N/A   Clear
7:52 AM 44.6 °F 40.2 °F 41.0 °F 87% 29.72 in 10.0 mi ESE 8.1 mph - N/A   Clear
8:52 AM 46.9 °F - 43.0 °F 86% 29.75 in 10.0 mi SE 6.9 mph - N/A   Clear
9:52 AM 53.1 °F - 46.0 °F 77% 29.75 in 10.0 mi SE 9.2 mph - N/A   Clear
10:52 AM 59.0 °F - 48.0 °F 67% 29.77 in 10.0 mi Calm Calm - N/A   Clear
11:52 AM 64.0 °F - 48.9 °F 58% 29.76 in 10.0 mi SSW 8.1 mph - N/A   Clear
12:52 PM 70.0 °F - 48.9 °F 47% 29.76 in 10.0 mi WSW 5.8 mph - N/A   Clear
1:52 PM 73.0 °F - 48.0 °F 41% 29.74 in 9.0 mi Calm Calm - N/A   Clear
2:52 PM 75.0 °F - 48.0 °F 38% 29.74 in 10.0 mi North 6.9 mph - N/A   Clear
3:52 PM 75.9 °F - 46.9 °F 36% 29.74 in 10.0 mi NW 4.6 mph - N/A   Clear
4:52 PM 75.2 °F - 46.4 °F 36% 29.74 in 10.0 mi Calm Calm - N/A   Clear
5:52 PM 70.0 °F - 46.9 °F 44% 29.75 in 10.0 mi NW 10.4 mph - N/A   Clear
6:52 PM 62.1 °F - 45.0 °F 53% 29.77 in 10.0 mi North 8.1 mph - N/A   Clear
7:52 PM 59.0 °F - 45.0 °F 60% 29.81 in 10.0 mi North 8.1 mph - N/A   Partly Cloudy
8:52 PM 61.0 °F - 46.0 °F 58% 29.81 in 10.0 mi North 9.2 mph - N/A   Clear
9:52 PM 57.9 °F - 46.9 °F 67% 29.83 in 10.0 mi NNE 15.0 mph - N/A   Scattered Clouds
10:52 PM 54.0 °F - 46.0 °F 75% 29.86 in 10.0 mi NNE 11.5 mph - N/A   Mostly Cloudy
11:52 PM 52.0 °F - 46.0 °F 80% 29.86 in 10.0 mi NNE 11.5 mph - N/A   Scattered Clouds